This is the latest recevied weather packets stored in our database for station/object S51UL-6. If no packets are shown the sender has not sent any weather packets the latest 10 day(s).
| Time | Temp. | Humidity | Pressure | Rain* | Wind** | Luminosity | Snow |
|---|---|---|---|---|---|---|---|
| 1788571239 | 15.56° C | 85% | 1015 hPa | 4.06 mm | - | - | - |
| 1788570939 | 15.56° C | 85% | 1015 hPa | 3.56 mm | - | - | - |
| 1788570639 | 15.56° C | 85% | 1015 hPa | 3.56 mm | - | - | - |
| 1788570339 | 15.56° C | 85% | 1015 hPa | 3.56 mm | - | - | - |
| 1788570039 | 15.56° C | 85% | 1015.1 hPa | 3.56 mm | - | - | - |
| 1788569796 | 15.56° C | 85% | 1015 hPa | 3.56 mm | - | - | - |
| 1788569739 | 15.56° C | 85% | 1015 hPa | 3.56 mm | - | - | - |
| 1788569439 | 15.56° C | 85% | 1015 hPa | 2.54 mm | - | - | - |
| 1788569139 | 15.56° C | 85% | 1015 hPa | 2.54 mm | - | - | - |
| 1788568854 | 15.56° C | 84% | 1014.9 hPa | 2.54 mm | - | - | - |
| 1788568539 | 15.56° C | 84% | 1015 hPa | 2.54 mm | - | - | - |
| 1788568239 | 15.56° C | 84% | 1014.9 hPa | 2.54 mm | - | - | - |
| 1788567939 | 15.56° C | 84% | 1015.2 hPa | 1.02 mm | - | - | - |
| 1788567641 | 15.56° C | 84% | 1015.3 hPa | 2.03 mm | - | - | - |
| 1788567043 | 15.56° C | 84% | 1015.2 hPa | 3.05 mm | - | - | - |
| 1788566740 | 15.56° C | 84% | 1015 hPa | 3.05 mm | - | - | - |
| 1788566440 | 15.56° C | 84% | 1015.2 hPa | 3.05 mm | - | - | - |
| 1788566140 | 15.56° C | 84% | 1015.2 hPa | 3.05 mm | - | - | - |
| 1788565540 | 16.11° C | 83% | 1015.2 hPa | 3.05 mm | - | - | - |
| 1788565240 | 16.11° C | 84% | 1015.4 hPa | 2.03 mm | - | - | - |
| 1788564942 | 16.11° C | 83% | 1015.3 hPa | 2.03 mm | - | - | - |
| 1788564690 | 16.11° C | 83% | 1015.3 hPa | 2.03 mm | - | - | - |
| 1788564642 | 16.11° C | 83% | 1015.3 hPa | 2.03 mm | - | - | - |
| 1788564340 | 16.11° C | 83% | 1015.4 hPa | 1.02 mm | - | - | - |
| 1788563740 | 16.11° C | 83% | 1015.4 hPa | 0 mm | - | - | - |
* Rain latest hour (hover to see other rain measurements)
** Current wind speed in m/s (hover to see current wind gust speed)